Tracking 20040 objects as of 19-Nov-2019
Live streaming from Space Station
objects crossing your sky now

INSAT 4A

Track INSAT 4A now!
INSAT 4A is classified as:


NORAD ID: 28911
Int'l Code: 2005-049A
Perigee: 36,086.4 km
Apogee: 36,106.6 km
Inclination: 0.4 °
Period: 1,451.6 minutes
Semi major axis: 42467 km
RCS: 12.5892 m2 (large)
Launch date: December 21, 2005
Source: India (IND)
Launch site: FRENCH GUIANA (FRGUI)
aabbcc
Your satellite tracking list
Your tracking list is empty




NASA's NSSDC Master Catalog

Two Line Element Set (TLE):
1 28911U 05049A   19322.42663014 -.00000242  00000-0  00000+0 0  9990
2 28911   0.3672 104.3625 0002376 122.4467 316.5590  0.99201305 50997
Source of the keplerian elements: AFSPC